Home > Time Zones > World Clock > Weather > Aktau > Past weeks

Flag for Kazakhstan Weather past 2 weeks in Aktau, Kazakhstan

Now
91 °F

Passing clouds.


Feels Like: 87 °F
Forecast: 67 / 84 °F
Wind: 17 mph from South

Location: Aktau

Current Time: May 28, 2015 at 3:55:55 PM

Latest Report: May 28, 2015 at 3:30 PM


Visibility: N/A

Pressure: 29.68 "Hg

Humidity: 16%

Dew point: 39 °F

Location of AktauLocation

Historic Weather in Aktau — Graph

°F

Aktau temperature yesterday

Maximum temperature yesterday: 81 °F (at 12:30 PM)
Minimum temperature yesterday: 61 °F (at 5:00 AM)
Average temperature yesterday: 72 °F

Past Weeks' High & Low Weather Summary

 TemperatureHumidityPressure
High93 °F (May 26, 3:30 PM)94% (May 17, 12:30 AM)30.15 "Hg (May 17, 12:30 AM)
Low45 °F (May 21, 6:00 AM)6% (May 24, 2:00 PM)29.68 "Hg (May 28, 2:00 PM)
Average65 °F52%30.00 "Hg
* Reported May 13 2:00 PM — May 28 2:30 PM, Aktau, Weather by CustomWeather, © 2015

Note: Actual official high and low records may vary slightly from our data, if they occured in-between our weather recording intervals... More about our weather records

Advertising

Aktau weather history for previous 24 hours

 ConditionsComfort  
Time TempWeatherWind HumidityBarometerVisibility
2:30 PM
Thu, May 28
93 °FPassing clouds.17 mph13%29.68 "HgN/A
2:00 PM91 °FSunny.15 mph13%29.68 "Hg10 mi
1:30 PM93 °FSunny.15 mph12%29.71 "Hg10 mi
1:00 PM90 °FSunny.17 mph14%29.71 "Hg10 mi
12:30 PM90 °FSunny.20 mph14%29.71 "Hg10 mi
12:00 PM90 °FPassing clouds.20 mph13%29.71 "HgN/A
11:30 AM90 °FSunny.22 mph12%29.71 "Hg10 mi
11:00 AM88 °FBroken clouds.24 mph13%29.71 "HgN/A
10:30 AM84 °FBroken clouds.22 mph15%29.74 "HgN/A
10:00 AM86 °FClear.26 mph12%29.71 "Hg6 mi
9:30 AM84 °FClear.26 mph14%29.71 "Hg5 mi
9:00 AM81 °FSunny.22 mph17%29.74 "Hg10 mi
8:30 AM79 °FSunny.22 mph21%29.74 "Hg10 mi
8:00 AM77 °FSunny.17 mph24%29.74 "Hg10 mi
7:30 AM75 °FClear.15 mph25%29.74 "Hg10 mi
7:00 AM73 °FClear.13 mph27%29.74 "Hg10 mi
6:30 AM72 °FClear.13 mph29%29.74 "Hg10 mi
6:00 AM70 °FClear.10 mph31%29.74 "Hg10 mi
5:30 AM70 °FClear.10 mph31%29.74 "Hg10 mi
5:00 AM68 °FClear.8 mph35%29.74 "Hg10 mi
4:30 AM68 °FClear.10 mph43%29.74 "Hg10 mi
4:00 AM72 °FClear.10 mph41%29.74 "Hg10 mi
3:30 AM72 °FClear.6 mph41%29.77 "Hg10 mi
3:00 AM72 °FClear.10 mph38%29.74 "Hg10 mi
2:30 AM70 °FClear.8 mph43%29.77 "Hg10 mi
2:00 AM70 °FClear.3 mph40%29.80 "Hg10 mi
1:30 AM70 °FClear.6 mph40%29.80 "Hg10 mi
1:00 AM70 °FClear.No wind40%29.80 "Hg10 mi
12:30 AM70 °FClear.6 mph38%29.80 "Hg10 mi
12:00 AM68 °FClear.6 mph40%29.80 "Hg10 mi
11:30 PM
Wed, May 27
70 °FClear.6 mph35%29.80 "Hg10 mi
11:00 PM68 °FSunny.6 mph35%29.83 "Hg10 mi
10:30 PM70 °FSunny.6 mph33%29.83 "Hg10 mi
10:00 PM70 °FSunny.6 mph33%29.83 "Hg10 mi
9:30 PM73 °FSunny.3 mph29%29.80 "Hg10 mi
9:00 PM75 °FSunny.3 mph25%29.80 "Hg10 mi
8:30 PM79 °FSunny.1 mph23%29.80 "Hg10 mi
8:00 PM79 °FSunny.No wind21%29.80 "Hg10 mi
7:30 PM81 °FSunny.No wind18%29.83 "Hg10 mi
7:00 PM81 °FSunny.1 mph17%29.83 "Hg10 mi
6:30 PM81 °FPassing clouds.3 mph17%29.83 "HgN/A
6:00 PM79 °FSunny.6 mph21%29.83 "Hg10 mi
5:30 PM81 °FSunny.8 mph21%29.83 "Hg10 mi
5:00 PM81 °FSunny.8 mph21%29.83 "Hg10 mi
4:30 PM79 °FSunny.10 mph26%29.83 "Hg10 mi
4:00 PM81 °FSunny.10 mph24%29.86 "Hg10 mi
3:30 PM77 °FSunny.10 mph32%29.86 "Hg10 mi
3:00 PM79 °FSunny.13 mph28%29.83 "Hg10 mi
Weather by CustomWeather, © 2015

See weather overviewHow to use our weather pages